�������l�o���
Date,Time,MP-1(��Sv/h),MP-2(��Sv/h),MP-3(��Sv/h),MP-4(��Sv/h),MP-5(��Sv/h),MP-6(��Sv/h),MP-7(��Sv/h),MP-8(��Sv/h),����,����(m/s),���J
2019/06/02,00:00,0.756,1.090,0.753,1.364,1.015,0.439,0.761,0.721,�쐼,2.8,��
2019/06/02,00:10,0.756,1.090,0.750,1.363,1.017,0.439,0.764,0.719,��쐼,3.2,��
2019/06/02,00:20,0.755,1.090,0.753,1.361,1.019,0.440,0.762,0.722,�쐼,3.5,��
2019/06/02,00:30,0.755,1.090,0.756,1.365,1.016,0.440,0.764,0.720,�쐼,3.3,��
2019/06/02,00:40,0.758,1.091,0.752,1.363,1.017,0.439,0.764,0.719,�쐼,2.8,��
2019/06/02,00:50,0.755,1.088,0.755,1.362,1.017,0.441,0.764,0.721,�쐼,2.9,��
2019/06/02,01:00,0.756,1.091,0.756,1.365,1.017,0.439,0.763,0.721,���쐼,2.6,��
2019/06/02,01:10,0.756,1.087,0.754,1.363,1.018,0.439,0.762,0.720,�쐼,2.9,��
2019/06/02,01:20,0.754,1.087,0.754,1.364,1.016,0.439,0.763,0.720,�쐼,3.0,��
2019/06/02,01:30,0.755,1.092,0.753,1.366,1.017,0.439,0.762,0.720,���쐼,2.6,��
2019/06/02,01:40,0.755,1.090,0.753,1.362,1.016,0.439,0.763,0.722,���쐼,2.9,��
2019/06/02,01:50,0.755,1.088,0.755,1.365,1.017,0.439,0.763,0.721,���쐼,3.3,��
2019/06/02,02:00,0.755,1.087,0.753,1.363,1.018,0.440,0.762,0.722,���쐼,2.8,��
2019/06/02,02:10,0.755,1.089,0.753,1.365,1.017,0.439,0.762,0.720,��,2.6,��
2019/06/02,02:20,0.757,1.087,0.753,1.365,1.018,0.439,0.765,0.722,��,2.6,��
2019/06/02,02:30,0.754,1.089,0.752,1.364,1.016,0.440,0.761,0.722,��,2.3,��
2019/06/02,02:40,0.753,1.089,0.753,1.363,1.018,0.439,0.765,0.721,���쐼,1.7,��
2019/06/02,02:50,0.754,1.089,0.754,1.365,1.018,0.439,0.763,0.722,���쐼,2.2,��
2019/06/02,03:00,0.754,1.088,0.754,1.362,1.016,0.439,0.764,0.721,��,2.5,��
2019/06/02,03:10,0.755,1.089,0.753,1.364,1.017,0.440,0.761,0.719,��,1.7,��
2019/06/02,03:20,0.755,1.089,0.751,1.364,1.017,0.441,0.763,0.720,���쐼,1.4,��
2019/06/02,03:30,0.756,1.088,0.752,1.363,1.016,0.437,0.764,0.721,��,1.7,��
2019/06/02,03:40,0.754,1.086,0.753,1.363,1.017,0.438,0.762,0.720,�쐼,1.4,��
2019/06/02,03:50,0.755,1.088,0.755,1.365,1.017,0.438,0.763,0.721,���쐼,0.9,��
2019/06/02,04:00,0.755,1.086,0.753,1.364,1.019,0.438,0.764,0.720,��,1.2,��
2019/06/02,04:10,0.754,1.088,0.752,1.365,1.015,0.439,0.762,0.721,��,1.2,��
2019/06/02,04:20,0.754,1.089,0.753,1.366,1.017,0.439,0.761,0.720,���쐼,1.2,��
2019/06/02,04:30,0.754,1.088,0.752,1.362,1.018,0.438,0.765,0.720,���쐼,1.2,��
2019/06/02,04:40,0.754,1.087,0.753,1.364,1.015,0.438,0.763,0.720,��,1.7,��
2019/06/02,04:50,0.753,1.087,0.753,1.363,1.018,0.439,0.763,0.722,���k��,1.5,��
2019/06/02,05:00,0.755,1.087,0.751,1.362,1.014,0.438,0.763,0.721,��,1.2,��
2019/06/02,05:10,0.753,1.090,0.752,1.363,1.017,0.439,0.764,0.720,��,1.5,��
2019/06/02,05:20,0.755,1.087,0.753,1.364,1.016,0.437,0.762,0.720,���k��,1.2,��
2019/06/02,05:30,0.751,1.087,0.753,1.364,1.015,0.438,0.763,0.721,��,1.9,��
2019/06/02,05:40,0.753,1.086,0.754,1.364,1.015,0.438,0.762,0.720,��,3.3,��
2019/06/02,05:50,0.755,1.089,0.754,1.364,1.018,0.438,0.764,0.720,��,2.6,��
2019/06/02,06:00,0.754,1.089,0.755,1.363,1.016,0.439,0.763,0.720,��,3.2,��
2019/06/02,06:10,0.756,1.088,0.753,1.363,1.016,0.438,0.764,0.721,��,2.6,��
2019/06/02,06:20,0.755,1.089,0.755,1.364,1.016,0.440,0.766,0.721,��,2.3,��
2019/06/02,06:30,0.755,1.090,0.754,1.361,1.017,0.439,0.763,0.723,���쐼,1.9,��
2019/06/02,06:40,0.755,1.088,0.753,1.364,1.016,0.436,0.765,0.722,��,1.7,��
2019/06/02,06:50,0.756,1.088,0.752,1.365,1.016,0.439,0.764,0.719,���쐼,0.8,��
2019/06/02,07:00,0.754,1.087,0.753,1.366,1.016,0.438,0.765,0.721,-,CALM,��
2019/06/02,07:10,0.754,1.085,0.753,1.364,1.017,0.438,0.765,0.720,���k��,0.9,��
2019/06/02,07:20,0.754,1.088,0.755,1.366,1.016,0.437,0.763,0.721,-,CALM,��
2019/06/02,07:30,0.756,1.087,0.753,1.366,1.018,0.438,0.762,0.720,�k��,0.8,��
2019/06/02,07:40,0.756,1.087,0.755,1.366,1.017,0.435,0.763,0.720,�k��,1.2,��
2019/06/02,07:50,0.754,1.089,0.755,1.369,1.018,0.436,0.763,0.720,���k��,1.2,��
2019/06/02,08:00,0.754,1.089,0.754,1.368,1.015,0.437,0.762,0.719,�k��,1.1,��
2019/06/02,08:10,0.755,1.089,0.754,1.365,1.017,0.437,0.762,0.718,�k�k��,1.2,��
2019/06/02,08:20,0.754,1.087,0.756,1.366,1.018,0.440,0.763,0.718,���k��,1.7,��
2019/06/02,08:30,0.755,1.089,0.755,1.368,1.016,0.439,0.764,0.719,���k��,1.7,��
2019/06/02,08:40,0.752,1.091,0.755,1.366,1.018,0.437,0.762,0.718,���쓌,1.7,��
2019/06/02,08:50,0.755,1.092,0.755,1.370,1.021,0.438,0.763,0.718,�쓌,1.7,��
2019/06/02,09:00,0.754,1.090,0.754,1.368,1.020,0.438,0.765,0.720,�쓌,1.7,��
2019/06/02,09:10,0.756,1.091,0.755,1.366,1.014,0.438,0.763,0.719,�쓌,2.0,��
2019/06/02,09:20,0.755,1.094,0.756,1.367,1.019,0.437,0.764,0.719,��쓌,2.5,��
2019/06/02,09:30,0.756,1.091,0.755,1.367,1.017,0.437,0.763,0.718,��쓌,3.6,��
2019/06/02,09:40,0.757,1.092,0.753,1.367,1.018,0.437,0.763,0.720,��쓌,3.0,��
2019/06/02,09:50,0.755,1.093,0.754,1.367,1.018,0.439,0.762,0.720,��쓌,4.2,��
2019/06/02,10:00,0.759,1.094,0.755,1.366,1.020,0.436,0.765,0.719,��쓌,3.6,��
2019/06/02,10:10,0.757,1.097,0.755,1.365,1.020,0.438,0.764,0.718,��쓌,3.9,��
2019/06/02,10:20,0.757,1.094,0.755,1.368,1.021,0.439,0.762,0.718,��쓌,3.8,��
2019/06/02,10:30,0.756,1.096,0.756,1.368,1.022,0.438,0.765,0.720,��쓌,4.5,��
2019/06/02,10:40,0.758,1.094,0.755,1.368,1.020,0.439,0.762,0.720,��쓌,4.5,��
2019/06/02,10:50,0.757,1.096,0.755,1.368,1.022,0.439,0.764,0.721,��쓌,5.1,��
2019/06/02,11:00,0.759,1.096,0.755,1.367,1.023,0.439,0.765,0.719,��쓌,5.5,��
2019/06/02,11:10,0.758,1.097,0.757,1.368,1.023,0.439,0.765,0.719,��쓌,6.4,��
2019/06/02,11:20,0.758,1.096,0.755,1.365,1.024,0.439,0.765,0.720,��쓌,6.2,��
2019/06/02,11:30,0.758,1.097,0.757,1.367,1.021,0.437,0.765,0.720,��쓌,7.3,��
2019/06/02,11:40,0.758,1.101,0.757,1.367,1.024,0.439,0.765,0.720,��쓌,6.7,��
2019/06/02,11:50,0.759,1.099,0.759,1.364,1.024,0.439,0.765,0.720,��쓌,6.4,��
2019/06/02,12:00,0.758,1.099,0.757,1.368,1.023,0.439,0.765,0.719,��쓌,6.4,��
2019/06/02,12:10,0.759,1.096,0.757,1.369,1.025,0.439,0.763,0.719,��쓌,7.6,��
2019/06/02,12:20,0.758,1.103,0.756,1.366,1.024,0.440,0.765,0.720,��,8.6,��
2019/06/02,12:30,0.757,1.100,0.757,1.367,1.026,0.440,0.765,0.719,��쓌,10.2,��
2019/06/02,12:40,0.759,1.100,0.757,1.366,1.025,0.440,0.765,0.720,��쓌,9.0,��
2019/06/02,12:50,0.758,1.100,0.758,1.366,1.025,0.440,0.765,0.720,��,9.6,��
2019/06/02,13:00,0.759,1.101,0.759,1.367,1.025,0.440,0.763,0.720,��,5.7,��
2019/06/02,13:10,0.762,1.102,0.758,1.368,1.026,0.441,0.764,0.722,��쓌,8.5,��
2019/06/02,13:20,0.758,1.103,0.760,1.370,1.025,0.440,0.764,0.722,-,CALM,��
2019/06/02,13:30,0.759,1.102,0.757,1.369,1.027,0.440,0.763,0.720,��,2.3,��
2019/06/02,13:40,0.761,1.102,0.759,1.367,1.025,0.439,0.763,0.720,��쓌,4.7,��
2019/06/02,13:50,0.759,1.103,0.759,1.370,1.026,0.440,0.765,0.720,��쓌,5.6,��
2019/06/02,14:00,0.762,1.100,0.760,1.369,1.027,0.442,0.764,0.719,��쓌,6.2,��
2019/06/02,14:10,0.760,1.101,0.758,1.369,1.027,0.441,0.765,0.719,��쓌,8.5,��
2019/06/02,14:20,0.760,1.101,0.759,1.372,1.027,0.441,0.765,0.720,��쓌,9.2,��
2019/06/02,14:30,0.762,1.102,0.758,1.367,1.027,0.439,0.764,0.720,��쓌,10.9,��
2019/06/02,14:40,0.759,1.099,0.760,1.369,1.027,0.442,0.765,0.722,��쓌,10.0,��
2019/06/02,14:50,0.762,1.103,0.758,1.368,1.027,0.440,0.764,0.720,��쓌,9.8,��
2019/06/02,15:00,0.760,1.101,0.760,1.369,1.028,0.442,0.765,0.721,��,7.8,��
2019/06/02,15:10,0.758,1.102,0.759,1.370,1.024,0.441,0.765,0.719,��쓌,9.9,��
2019/06/02,15:20,0.760,1.100,0.758,1.368,1.027,0.440,0.764,0.721,��쓌,11.8,��
2019/06/02,15:30,0.761,1.101,0.757,1.371,1.024,0.441,0.764,0.719,��,10.3,��
2019/06/02,15:40,0.761,1.101,0.759,1.371,1.028,0.440,0.765,0.721,��쓌,9.3,��
2019/06/02,15:50,0.758,1.100,0.759,1.372,1.027,0.442,0.765,0.722,��,7.3,��
2019/06/02,16:00,0.761,1.099,0.758,1.373,1.026,0.442,0.764,0.721,��,6.3,��
2019/06/02,16:10,0.762,1.099,0.758,1.373,1.027,0.440,0.765,0.720,��쓌,8.6,��
2019/06/02,16:20,0.761,1.101,0.759,1.370,1.027,0.440,0.764,0.720,��,8.0,��
2019/06/02,16:30,0.760,1.101,0.761,1.373,1.027,0.440,0.765,0.720,��쓌,7.1,��
2019/06/02,16:40,0.759,1.101,0.759,1.375,1.024,0.441,0.765,0.721,��,7.1,��
2019/06/02,16:50,0.759,1.100,0.759,1.374,1.027,0.440,0.765,0.720,��,8.8,��
2019/06/02,17:00,0.760,1.102,0.762,1.372,1.025,0.439,0.765,0.720,��,8.5,��
2019/06/02,17:10,0.759,1.101,0.758,1.375,1.026,0.440,0.764,0.722,��,7.9,��
2019/06/02,17:20,0.758,1.101,0.760,1.374,1.027,0.443,0.765,0.721,��,7.5,��
2019/06/02,17:30,0.760,1.103,0.760,1.374,1.025,0.439,0.764,0.722,��,7.5,��
2019/06/02,17:40,0.761,1.103,0.759,1.376,1.026,0.441,0.762,0.720,��,7.3,��
2019/06/02,17:50,0.760,1.100,0.758,1.373,1.028,0.441,0.765,0.721,��,6.7,��
2019/06/02,18:00,0.760,1.102,0.760,1.375,1.028,0.441,0.765,0.723,��,7.5,��
2019/06/02,18:10,0.759,1.102,0.762,1.376,1.026,0.441,0.766,0.721,��,6.5,��
2019/06/02,18:20,0.759,1.101,0.760,1.375,1.026,0.442,0.765,0.721,��,7.1,��
2019/06/02,18:30,0.761,1.102,0.761,1.376,1.026,0.440,0.765,0.724,��,7.0,��
2019/06/02,18:40,0.759,1.104,0.763,1.374,1.027,0.440,0.767,0.724,��,7.4,��
2019/06/02,18:50,0.759,1.104,0.763,1.378,1.026,0.441,0.764,0.723,��,7.2,��
2019/06/02,19:00,0.761,1.104,0.762,1.375,1.027,0.442,0.764,0.723,��,7.0,��
2019/06/02,19:10,0.760,1.103,0.761,1.375,1.028,0.440,0.767,0.723,��,6.4,��
2019/06/02,19:20,0.762,1.103,0.762,1.374,1.030,0.441,0.767,0.723,��,5.8,��
2019/06/02,19:30,0.763,1.104,0.763,1.376,1.030,0.442,0.766,0.724,��,5.2,��
2019/06/02,19:40,0.761,1.106,0.761,1.372,1.029,0.440,0.766,0.722,��,5.1,��
2019/06/02,19:50,0.763,1.106,0.762,1.375,1.032,0.443,0.766,0.722,��,6.5,��
2019/06/02,20:00,0.762,1.106,0.762,1.375,1.029,0.443,0.765,0.723,��,5.8,��
2019/06/02,20:10,0.764,1.105,0.762,1.375,1.030,0.443,0.765,0.723,��,5.2,��
2019/06/02,20:20,0.761,1.106,0.760,1.373,1.028,0.443,0.765,0.721,��,4.2,��
2019/06/02,20:30,0.763,1.105,0.762,1.374,1.028,0.443,0.766,0.723,��,4.0,��
2019/06/02,20:40,0.761,1.105,0.761,1.377,1.030,0.442,0.766,0.723,��쐼,4.3,��
2019/06/02,20:50,0.762,1.106,0.760,1.377,1.030,0.442,0.766,0.723,��쐼,4.7,��
2019/06/02,21:00,0.762,1.103,0.761,1.374,1.029,0.442,0.767,0.722,��쐼,5.5,��
2019/06/02,21:10,0.765,1.101,0.761,1.376,1.029,0.443,0.766,0.722,��쐼,5.5,��
2019/06/02,21:20,0.762,1.102,0.764,1.376,1.031,0.443,0.767,0.724,��쐼,4.9,��
2019/06/02,21:30,0.763,1.104,0.761,1.376,1.030,0.441,0.766,0.723,��쐼,4.8,��
2019/06/02,21:40,0.762,1.107,0.760,1.375,1.031,0.442,0.767,0.723,��쐼,4.0,��
2019/06/02,21:50,0.765,1.104,0.763,1.376,1.031,0.444,0.767,0.723,��,4.4,��
2019/06/02,22:00,0.762,1.103,0.762,1.376,1.032,0.442,0.767,0.724,��,4.9,��
2019/06/02,22:10,0.761,1.106,0.761,1.375,1.028,0.443,0.767,0.724,��,4.5,��
2019/06/02,22:20,0.762,1.105,0.761,1.374,1.030,0.443,0.767,0.722,��,4.9,��
2019/06/02,22:30,0.764,1.105,0.762,1.377,1.030,0.442,0.766,0.723,��,5.7,��
2019/06/02,22:40,0.764,1.105,0.760,1.376,1.028,0.443,0.768,0.724,��,6.2,��
2019/06/02,22:50,0.761,1.107,0.760,1.376,1.032,0.441,0.767,0.723,��,6.4,��
2019/06/02,23:00,0.763,1.103,0.762,1.376,1.028,0.442,0.767,0.722,��,5.9,��
2019/06/02,23:10,0.762,1.103,0.761,1.375,1.029,0.441,0.766,0.723,��,6.1,��
2019/06/02,23:20,0.761,1.104,0.761,1.375,1.031,0.441,0.768,0.723,��,6.0,��
2019/06/02,23:30,0.762,1.104,0.762,1.376,1.031,0.441,0.766,0.723,��,5.9,��
2019/06/02,23:40,0.764,1.106,0.761,1.375,1.029,0.442,0.768,0.723,��,4.1,��
2019/06/02,23:50,0.763,1.102,0.760,1.376,1.030,0.442,0.767,0.722,��,3.2,��
